LAGEOS 1

Last updated on Wed Sep 17 2025 00:03:37 GMT+0000 (Coordinated Universal Time)

1 08820U 76039A 25259.51566095 .00000039 00000+0 00000+0 0 9993 2 08820 109.8450 85.6101 0044660 0.8517 12.2977 6.38664843895669
UTC large
Height (km)
Speed (km/s)
/
Latitude / Longitude
Inclination (degrees)
Orbital Period (minutes)
Azimuth
Elevation
Range (km)
Doppler Factor

Next 0 passes for location: London (51.5072 / 0.1276)

Sorry there are no passes over London.